AAL1551 TJSJ-KMCO

Flight info

Callsign AAL1551
Flight time N/A
Altitude 34000
Route ACONY3 SAPPO Y280 OCTAL MUNGI1
Aircraft A306/H-SDE3FGHIRWY/LB1

Departure

Time N/A
Airport Luis Munoz Marin International Airport (TJSJ)

Arrival

Time 2026-05-04 17:46
Airport Orlando International Airport (KMCO)
Time Latitude Longitude Altitude Speed Heading
2026-05-04 16:20 23.67957 -74.19682 34045 ft 391 kts 294°
2026-05-04 16:20 23.70672 -74.24824 34046 ft 391 kts 294°
2026-05-04 16:22 23.76994 -74.36816 34051 ft 391 kts 294°
2026-05-04 16:23 23.85113 -74.52259 34039 ft 391 kts 294°
2026-05-04 16:25 23.93213 -74.67715 34043 ft 391 kts 294°
2026-05-04 16:26 24.02643 -74.85770 34039 ft 391 kts 294°
2026-05-04 16:28 24.09348 -74.98647 34032 ft 391 kts 294°
2026-05-04 16:29 24.18739 -75.16749 34039 ft 391 kts 294°
2026-05-04 16:31 24.25445 -75.29710 34023 ft 391 kts 294°
2026-05-04 16:32 24.33467 -75.45258 34037 ft 392 kts 294°
2026-05-04 16:33 24.38832 -75.55694 34035 ft 393 kts 294°
2026-05-04 16:34 24.42852 -75.63525 34038 ft 392 kts 294°
2026-05-04 16:35 24.50865 -75.79169 34049 ft 392 kts 293°
2026-05-04 16:36 24.54863 -75.86995 34033 ft 391 kts 293°
2026-05-04 16:37 24.58854 -75.94821 34031 ft 391 kts 293°
2026-05-04 16:38 24.64168 -76.05261 34029 ft 391 kts 293°
2026-05-04 16:39 24.70798 -76.18321 34031 ft 392 kts 294°
2026-05-04 16:40 24.76103 -76.28793 34030 ft 392 kts 294°
2026-05-04 16:41 24.82724 -76.41898 34028 ft 392 kts 294°
2026-05-04 16:43 24.89318 -76.54986 34028 ft 391 kts 294°
2026-05-04 16:43 24.93270 -76.62846 34025 ft 391 kts 294°
2026-05-04 16:45 25.01122 -76.78506 34022 ft 391 kts 294°
2026-05-04 16:46 25.07050 -76.90363 34023 ft 390 kts 293°
2026-05-04 16:47 25.11537 -76.99358 34025 ft 390 kts 293°
2026-05-04 16:48 25.16496 -77.09321 34022 ft 390 kts 293°
2026-05-04 16:49 25.21716 -77.19829 34032 ft 390 kts 293°
2026-05-04 16:50 25.26926 -77.30343 34037 ft 390 kts 293°
2026-05-04 16:51 25.30354 -77.38437 34030 ft 385 kts 286°
2026-05-04 16:52 25.33985 -77.49514 34020 ft 384 kts 285°
2026-05-04 16:53 25.36677 -77.57854 34020 ft 384 kts 285°
2026-05-04 16:54 25.40282 -77.68988 34021 ft 384 kts 285°
2026-05-04 16:55 25.45168 -77.85780 34019 ft 380 kts 282°
2026-05-04 16:56 25.48607 -77.99803 34022 ft 380 kts 282°
2026-05-04 16:57 25.50739 -78.08336 34020 ft 380 kts 282°
2026-05-04 16:58 25.53547 -78.19613 34020 ft 380 kts 282°
2026-05-04 17:00 25.57550 -78.35769 34020 ft 380 kts 282°
2026-05-04 17:01 25.60946 -78.49541 34026 ft 380 kts 282°
2026-05-04 17:02 25.63699 -78.60752 34023 ft 380 kts 282°
2026-05-04 17:03 25.65773 -78.69219 34026 ft 380 kts 282°
2026-05-04 17:03 25.67851 -78.77732 34022 ft 380 kts 282°
2026-05-04 17:04 25.70345 -78.87974 34018 ft 380 kts 282°
2026-05-04 17:05 25.73099 -78.99325 34029 ft 380 kts 282°
2026-05-04 17:06 25.75152 -79.07816 34032 ft 380 kts 282°
2026-05-04 17:07 25.76741 -79.14405 34031 ft 380 kts 282°
2026-05-04 17:07 25.78335 -79.21025 34033 ft 380 kts 282°
2026-05-04 17:08 25.80566 -79.30315 34034 ft 380 kts 282°
2026-05-04 17:09 25.81921 -79.35974 34033 ft 380 kts 282°
2026-05-04 17:09 25.83277 -79.41647 34032 ft 380 kts 282°
2026-05-04 17:10 25.86446 -79.54941 34031 ft 382 kts 282°
2026-05-04 17:11 25.87800 -79.60642 34040 ft 382 kts 282°
2026-05-04 17:12 25.89826 -79.69190 34041 ft 380 kts 282°
2026-05-04 17:13 25.94348 -79.83224 34047 ft 407 kts 297°
2026-05-04 17:14 26.00378 -79.94027 34051 ft 414 kts 298°
2026-05-04 17:14 26.03370 -79.99362 33600 ft 395 kts 298°
2026-05-04 17:15 26.04802 -80.01919 33278 ft 385 kts 297°
2026-05-04 17:15 26.07594 -80.06919 32328 ft 376 kts 298°
2026-05-04 17:16 26.10324 -80.11812 31433 ft 367 kts 298°
2026-05-04 17:16 26.14521 -80.18788 30348 ft 367 kts 307°
2026-05-04 17:17 26.16463 -80.20750 30166 ft 387 kts 317°
2026-05-04 17:17 26.23769 -80.24888 29482 ft 396 kts 328°
2026-05-04 17:18 26.26263 -80.26169 29257 ft 394 kts 328°
2026-05-04 17:18 26.31222 -80.28735 28806 ft 392 kts 328°
2026-05-04 17:19 26.36157 -80.31303 28375 ft 390 kts 328°
2026-05-04 17:19 26.41068 -80.33865 27937 ft 389 kts 328°
2026-05-04 17:20 26.45963 -80.36422 27509 ft 387 kts 328°
2026-05-04 17:20 26.50838 -80.38971 27094 ft 386 kts 328°
2026-05-04 17:20 26.53269 -80.40242 26859 ft 386 kts 328°
2026-05-04 17:21 26.58122 -80.42783 26430 ft 384 kts 328°
2026-05-04 17:21 26.62985 -80.45237 25998 ft 385 kts 332°
2026-05-04 17:22 26.65497 -80.46296 25776 ft 386 kts 333°
2026-05-04 17:22 26.68011 -80.47329 25559 ft 385 kts 333°
2026-05-04 17:23 26.75517 -80.50415 24910 ft 384 kts 333°
2026-05-04 17:23 26.78020 -80.51448 24687 ft 383 kts 333°
2026-05-04 17:23 26.83016 -80.53514 24277 ft 382 kts 333°
2026-05-04 17:24 26.85506 -80.54545 24056 ft 381 kts 333°
2026-05-04 17:24 26.92943 -80.57627 23392 ft 379 kts 333°
2026-05-04 17:25 26.95409 -80.58650 23181 ft 378 kts 333°
2026-05-04 17:25 27.00321 -80.60688 22757 ft 375 kts 333°
2026-05-04 17:26 27.05207 -80.62718 22340 ft 373 kts 333°
2026-05-04 17:26 27.12432 -80.65729 21708 ft 369 kts 333°
2026-05-04 17:27 27.17227 -80.67737 21299 ft 367 kts 333°
2026-05-04 17:27 27.21993 -80.69736 20880 ft 365 kts 333°
2026-05-04 17:28 27.26736 -80.71727 20472 ft 362 kts 333°
2026-05-04 17:29 27.33787 -80.74690 19868 ft 359 kts 334°
2026-05-04 17:29 27.40768 -80.77668 18840 ft 356 kts 333°
2026-05-04 17:30 27.47642 -80.80644 17186 ft 350 kts 334°
2026-05-04 17:31 27.52152 -80.82599 16077 ft 345 kts 334°
2026-05-04 17:31 27.58701 -80.85627 14506 ft 336 kts 331°
2026-05-04 17:32 27.62914 -80.87836 13473 ft 332 kts 331°
2026-05-04 17:33 27.69126 -80.91094 11748 ft 325 kts 331°
2026-05-04 17:33 27.71187 -80.92176 11224 ft 323 kts 332°
2026-05-04 17:34 27.77246 -80.95355 9569 ft 317 kts 332°
2026-05-04 17:34 27.79217 -80.96390 8995 ft 316 kts 332°
2026-05-04 17:35 27.84922 -80.99387 8128 ft 287 kts 332°
2026-05-04 17:35 27.88483 -81.01262 7677 ft 281 kts 333°
2026-05-04 17:35 27.90254 -81.02195 7553 ft 281 kts 333°
2026-05-04 17:36 27.92025 -81.03129 7390 ft 281 kts 333°
2026-05-04 17:36 27.93810 -81.04013 7160 ft 280 kts 337°
2026-05-04 17:36 27.95622 -81.04803 6939 ft 278 kts 338°
2026-05-04 17:36 27.97420 -81.05566 6738 ft 274 kts 339°
2026-05-04 17:37 27.99213 -81.06324 6511 ft 276 kts 340°
2026-05-04 17:37 28.01013 -81.07085 6266 ft 276 kts 340°
2026-05-04 17:37 28.02809 -81.07844 6021 ft 275 kts 340°
2026-05-04 17:37 28.04585 -81.08596 5966 ft 264 kts 340°
2026-05-04 17:38 28.06216 -81.09287 5958 ft 238 kts 340°
2026-05-04 17:38 28.07741 -81.09932 5967 ft 232 kts 340°
2026-05-04 17:38 28.09248 -81.10564 5973 ft 231 kts 341°
2026-05-04 17:38 28.10751 -81.11192 5974 ft 230 kts 340°
2026-05-04 17:39 28.13759 -81.12463 5885 ft 230 kts 338°
2026-05-04 17:39 28.15079 -81.13468 5643 ft 232 kts 314°
2026-05-04 17:39 28.15948 -81.15005 5406 ft 232 kts 298°
2026-05-04 17:40 28.16650 -81.16656 5176 ft 232 kts 296°
2026-05-04 17:40 28.17327 -81.18319 4975 ft 232 kts 296°
2026-05-04 17:40 28.18018 -81.19971 4838 ft 232 kts 296°
2026-05-04 17:40 28.18696 -81.21625 4697 ft 231 kts 296°
2026-05-04 17:41 28.19387 -81.23276 4579 ft 231 kts 296°
2026-05-04 17:41 28.20072 -81.24897 4482 ft 228 kts 297°
2026-05-04 17:41 28.20789 -81.26474 4329 ft 220 kts 306°
2026-05-04 17:41 28.21946 -81.27502 3995 ft 216 kts 336°
2026-05-04 17:42 28.23370 -81.28039 3653 ft 207 kts 356°
2026-05-04 17:42 28.24743 -81.28099 3383 ft 194 kts
2026-05-04 17:42 28.26062 -81.28064 3139 ft 185 kts
2026-05-04 17:42 28.27314 -81.28083 2914 ft 173 kts
2026-05-04 17:43 28.28465 -81.28098 2713 ft 160 kts
2026-05-04 17:43 28.29587 -81.28106 2483 ft 163 kts
2026-05-04 17:43 28.30720 -81.28118 2283 ft 163 kts
2026-05-04 17:43 28.31856 -81.28130 2065 ft 162 kts
2026-05-04 17:44 28.32976 -81.28141 1844 ft 159 kts
2026-05-04 17:44 28.34073 -81.28154 1631 ft 157 kts
2026-05-04 17:44 28.35172 -81.28162 1426 ft 159 kts
2026-05-04 17:44 28.36276 -81.28175 1223 ft 158 kts
2026-05-04 17:45 28.37372 -81.28186 1019 ft 157 kts
2026-05-04 17:45 28.38461 -81.28195 804 ft 158 kts
2026-05-04 17:45 28.39566 -81.28207 601 ft 160 kts
2026-05-04 17:45 28.40678 -81.28217 379 ft 159 kts
2026-05-04 17:46 28.41765 -81.28249 200 ft 155 kts
2026-05-04 17:46 28.42806 -81.28253 111 ft 138 kts
2026-05-04 17:46 28.43573 -81.28243 108 ft 73 kts 353°
2026-05-04 17:46 28.43842 -81.28316 110 ft 29 kts 315°
2026-05-04 17:47 28.43866 -81.28463 112 ft 14 kts 253°
2026-05-04 17:47 28.43869 -81.28569 113 ft 16 kts 273°
2026-05-04 17:47 28.43871 -81.28691 110 ft 15 kts 271°
2026-05-04 17:47 28.43871 -81.28823 110 ft 21 kts 269°
2026-05-04 17:48 28.43871 -81.28937 111 ft 21 kts 270°
2026-05-04 17:48 28.43869 -81.29159 107 ft 21 kts 269°
2026-05-04 17:48 28.43802 -81.29264 107 ft 16 kts 181°
2026-05-04 17:48 28.43709 -81.29265 108 ft 12 kts 180°
2026-05-04 17:49 28.43655 -81.29265 109 ft 11 kts 180°
2026-05-04 17:49 28.43563 -81.29274 110 ft 8 kts 203°
2026-05-04 17:49 28.43550 -81.29313 108 ft 6 kts 275°
2026-05-04 17:49 28.43553 -81.29372 109 ft 7 kts 272°
2026-05-04 17:50 28.43554 -81.29407 110 ft 6 kts 272°
2026-05-04 17:50 28.43551 -81.29532 109 ft 16 kts 268°
2026-05-04 17:50 28.43548 -81.29668 109 ft 17 kts 271°
2026-05-04 17:50 28.43549 -81.29799 110 ft 15 kts 269°
2026-05-04 17:51 28.43517 -81.29906 107 ft 14 kts 221°
2026-05-04 17:51 28.43473 -81.29971 107 ft 8 kts 264°
2026-05-04 17:51 28.43474 -81.30007 107 ft 1 kts 271°
2026-05-04 17:51 28.43474 -81.30013 107 ft 0 kts 270°
2026-05-04 17:52 28.43474 -81.30014 107 ft 0 kts 270°